カタログに戻る

FALCON 9 R/B

運用中HEO
NORAD 57210·ROCKET BODY·🇺🇸 United States

打ち上げ Jul 1, 2023 から Cape Canaveral Space Force Station

Loading…

次のパス (今後24時間)

TLE

古いSource: Space-Track

元期: Jul 1, 2023, 15:38 UTC

1 57210U 23092B   23182.65149054 -.00000361  00000-0  00000-0 0  9992
2 57210  28.2806 318.0655 8005778 123.3330 359.7928  1.26565515    00

AllMySatでFALCON 9 R/Bをリアルタイム追跡

Download on the App Store